Location: Kresge Environmental Education Center
(43.1138°N, 83.2433°W)
Time: 04:11:10
(UTC-04:00)

Daily predictions for brighter satellites

Satellite Brightness Start Highest point End
(mag) Time Altitude Azimuth Time Altitude Azimuth Time Altitude Azimuth
ATLAS 3B R/B 4.3 02:58:26 29° NNW 02:58:26 29° NNW 03:03:16 10° NNE
CZ-2D R/B 4.4 03:09:46 10° NE 03:11:58 20° NE 03:11:58 20° NE
Cosmos 1980 Rocket 4.2 03:19:14 24° NE 03:19:14 24° NE 03:21:27 10° NNE
Resurs 1-4 Rocket 4.4 03:14:38 10° NE 03:16:34 20° NE 03:16:34 20° NE
FALCON 9 R/B 4.4 03:31:24 58° SSE 03:31:24 58° SSE 04:00:53 10° ESE
Cosmos 2263 Rocket 4.0 03:27:07 10° N 03:31:06 26° NE 03:31:06 26° NE
Cosmos 2315 Rocket 4.4 04:10:00 60° ENE 04:10:00 60° ENE 04:15:30 10° NNE
Lacrosse 4 Rocket 4.3 04:08:51 10° N 04:11:23 15° NE 04:13:54 10° E
SL-16 R/B 3.7 04:16:19 33° NNW 04:16:19 33° NNW 04:19:37 10° NNW
Cosmos 2322 Rocket 2.6 04:28:06 57° NNE 04:28:06 57° NNE 04:32:32 10° NNE
Cosmos 1709 Rocket 4.3 04:22:42 10° N 04:27:32 56° NNW 04:27:32 56° NNW
CENTAUR R/B 2.8 04:30:07 59° NNW 04:30:07 59° NNW 04:36:28 10° NNE
ADEOS Rocket 3.1 04:24:49 10° NNE 04:29:19 59° NNE 04:29:19 59° NNE
SL-16 R/B 2.5 04:31:51 61° NNE 04:31:51 61° NNE 04:36:32 10° NNE
USA 215 3.5 04:25:33 10° ESE 04:32:02 66° NE 04:38:31 10° NW
ARIANE 5 R/B 3.7 04:41:07 10° N 04:44:11 33° NNW 04:44:11 33° NNW
COBE Rocket 4.3 04:46:45 10° N 04:50:56 58° NNW 04:50:56 58° NNW
CZ-2D R/B 3.1 04:49:26 10° N 04:53:19 36° NW 04:53:19 36° NW
Cosmos 1544 Rocket 4.1 04:52:28 10° N 04:56:53 58° E 04:57:05 57° E
Cosmos 2360 Rocket 2.4 04:57:54 53° SSE 04:58:57 64° ESE 05:04:34 10° NNE
Resurs 1-4 Rocket 3.2 04:54:16 10° N 04:57:39 31° NW 04:57:39 31° NW
Cosmos 1980 Rocket 3.8 05:01:00 22° NW 05:01:00 22° NW 05:04:42 10° N
CZ-4B R/B 4.0 04:59:08 10° NNE 05:02:24 35° E 05:02:24 35° E
Cosmos 1812 3.9 05:04:57 38° NNE 05:04:57 38° NNE 05:07:25 10° N
Okean O Rocket 2.3 05:04:12 10° NNE 05:08:33 51° E 05:09:49 38° SSE
Cosmos 2263 Rocket 3.6 05:10:39 10° NW 05:12:41 22° NW 05:12:41 22° NW
Cosmos 2184 Rocket 3.9 05:09:57 10° N 05:16:11 84° W 05:22:27 10° S
Cosmos 1340 3.0 05:18:04 62° ESE 05:18:07 62° E 05:21:52 10° NNE
Meteor 1-12 Rocket 4.2 05:12:50 10° N 05:18:32 83° E 05:24:13 10° S
Cosmos 1777 Rocket 3.9 05:16:09 10° NNW 05:21:28 76° WSW 05:26:44 10° SSE
DELTA 2 R/B (1) 4.3 05:20:34 35° S 05:21:31 37° SSE 05:26:36 10° E
ATLAS 5 CENTAUR R/B 4.3 05:16:52 10° NNW 05:21:49 28° NE 05:27:09 10° E
Meteor 1-18 Rocket 4.0 05:22:11 43° SSW 05:24:03 80° W 05:29:41 10° N
MOS 1-B 4.3 05:18:25 10° N 05:24:11 65° WNW 05:25:50 46° SW
Cosmos 1743 4.2 05:22:54 10° N 05:26:33 38° ENE 05:30:09 10° SSE
ADEOS II 2.4 05:21:40 10° NNE 05:26:55 66° ESE 05:30:52 18° S
Cosmos 1455 Rocket 2.9 05:26:28 10° NNW 05:30:52 74° W 05:32:07 46° SSW
Lacrosse 5 3.9 05:34:51 13° S 05:34:51 13° S 05:35:29 10° S
Cosmos 2322 3.6 05:29:55 40° SSW 05:32:04 81° WNW 05:37:51 10° NNE
MOS 1 Rocket 3.3 05:28:00 10° N 05:32:42 57° WNW 05:33:14 54° WSW
EO 1 Del DPAF 3.1 05:34:09 21° SSE 05:36:42 88° W 05:40:34 10° NNW
Cosmos 1975 Rocket 4.4 05:38:18 24° NW 05:38:18 24° NW 05:40:51 10° NNW
Okean 1 3.3 05:40:05 57° W 05:40:20 59° W 05:44:23 10° N
Cosmos 1238 Rocket 2.7 05:46:14 27° SSE 05:47:35 54° E 05:50:29 10° NNE
Cosmos 2154 Rocket 3.9 05:43:37 10° N 05:49:50 86° W 05:56:03 10° S
Cosmos 1975 3.0 05:46:14 10° NNW 05:50:09 46° W 05:50:38 44° WSW
Lacrosse 4 Rocket 1.3 05:46:21 10° NW 05:50:31 67° WSW 05:54:44 10° SSE
Cosmos 2333 4.5 05:46:11 13° SSW 05:51:11 68° ESE 05:56:52 10° NNE
Cosmos 1844 4.4 05:46:35 10° NNW 05:52:18 58° ENE 05:57:54 10° SE
CZ-4B DEB 4.2 05:49:58 10° N 05:55:31 74° WNW 06:00:33 13° SSW
Cosmos 1536 Rocket 3.7 05:54:41 29° SW 05:56:45 55° W 06:01:10 10° N
Cosmos 1500 3.8 05:53:53 10° NNW 05:57:02 35° WNW 05:57:02 35° WNW
Cosmos 2208 Rocket 4.0 05:53:05 16° SSW 05:57:32 88° WNW 06:03:01 10° NNE
Tiangong 2 1.0 05:59:14 54° WSW 05:59:40 63° SSW 06:02:46 10° ESE
CZ-4B R/B 3.2 05:54:12 10° N 05:59:50 69° WNW 06:04:58 12° SSW
Meteor PRIRODA 3.9 05:57:20 10° NNE 06:01:05 73° ESE 06:04:50 10° S
IRAS Rocket 4.2 05:57:28 10° NNE 06:02:59 71° WNW 06:08:31 10° SSW
Okean 1-7 Rocket 4.0 06:04:05 10° S 06:08:34 67° E 06:13:02 10° NNE
Cosmos 2181 Rocket 4.1 06:04:39 10° S 06:10:50 82° E 06:17:09 10° N
PSLV R/B 3.8 06:07:25 10° N 06:11:35 48° WNW 06:14:44 17° SW
Cosmos 2322 Rocket 3.8 06:09:55 15° WNW 06:11:44 17° NW 06:15:17 10° N
Gblst 52 Del rocket 4.3 06:06:19 11° WNW 06:11:45 71° SW 06:18:10 10° SE
SL-8 Rocket 4.4 06:07:34 10° N 06:13:47 67° E 06:19:55 10° SSE
USA 215 3.7 06:09:10 10° SSE 06:15:14 40° SW 06:21:20 10° WNW
Nadezhda 1 Rocket 4.3 06:10:50 15° SW 06:15:31 41° WNW 06:21:14 10° N
Cosmos 2237 4.4 06:11:23 17° SW 06:15:39 55° WNW 06:21:19 10° NNE
SL-16 R/B 3.9 06:13:43 14° WNW 06:15:46 16° NW 06:19:18 10° N
COSMOS 2428 2.7 06:14:19 13° SW 06:19:26 65° WNW 06:25:07 10° NNE
ERS-2 2.0 06:16:33 10° N 06:20:17 76° WNW 06:23:58 10° SSW
CENTAUR R/B 4.3 06:17:17 11° WNW 06:21:51 20° NNW 06:27:03 10° NNE
CZ-2C R/B 4.3 06:18:08 10° SSW 06:22:21 35° W 06:26:32 10° NNW
ISS -1.8 06:24:19 14° SSW 06:24:19 14° SSW 06:25:38 10° S
Thor Agena Rocket 3.6 06:18:41 10° SSE 06:23:45 83° ENE 06:28:49 10° NNW
USA 229 DEB 4.0 06:17:33 10° SSW 06:24:21 72° ESE 06:31:17 10° NE
USA 229 4.0 06:17:41 10° SSW 06:24:27 71° ESE 06:31:22 10° NE
Meteor 2-9 Rocket 4.2 06:20:21 10° N 06:26:05 89° W 06:31:39 10° S
Cosmos 2219 Rocket 2.2 06:20:40 10° SSW 06:26:15 85° ESE 06:31:52 10° NNE
Cosmos 2341 Rocket 4.0 06:21:16 10° NNW 06:27:24 60° W 06:33:29 10° S
Cosmos 1606 Rocket 4.2 06:23:23 10° N 06:27:49 60° E 06:32:14 10° SSE
Okean 2 4.0 06:24:30 10° S 06:28:34 59° E 06:32:42 10° NNE
Cosmos 2150 Rocket 4.3 06:24:00 10° NNW 06:29:17 72° ENE 06:34:37 10° SSE
Meteor 1-19 Rocket 4.3 06:25:55 10° SSW 06:31:27 58° WNW 06:37:07 10° N
SL-8 R/B 4.2 06:27:44 10° WNW 06:32:27 56° NNE 06:37:10 10° E
Cosmos 1844 Rocket 2.8 06:28:54 10° NW 06:34:19 51° WSW 06:39:39 10° S
Meteor 1-15 Rocket 4.5 06:30:20 10° N 06:36:17 82° E 06:42:13 10° SSE
CZ-4B R/B 4.1 06:32:06 10° N 06:36:35 65° WNW 06:41:02 10° SSW
Cosmos 2218 Rocket 4.2 06:30:26 10° N 06:36:53 84° E 06:43:13 10° S
CZ-4B R/B 4.4 06:35:15 10° NNW 06:37:24 15° WNW 06:38:35 13° W
Meteor 1-28 Rocket 4.2 06:35:23 10° SSE 06:39:05 52° ENE 06:42:48 10° N
Cosmos 990 Rocket 4.4 06:35:39 10° NNW 06:40:50 69° ENE 06:45:58 10° SSE
Cosmos 1898 Rocket 3.4 06:35:59 10° NNW 06:41:11 70° WSW 06:46:18 10° S
Cosmos 2360 Rocket 3.5 06:39:41 12° W 06:43:27 22° NW 06:47:49 10° N
Okean O Rocket 3.2 06:41:38 10° NNW 06:44:32 17° WNW 06:47:17 11° WSW
Cosmos 2278 Rocket 2.3 06:39:00 10° NNW 06:44:43 84° ENE 06:50:23 10° SSE
Cosmos 468 Rocket 4.0 06:39:57 10° SSW 06:45:07 78° WNW 06:50:23 10° NNE
Meteor 2-4 Rocket 3.8 06:44:28 10° SSW 06:49:59 55° WNW 06:55:22 10° N
Cosmos 332 Rocket 4.5 06:46:04 10° S 06:50:53 60° ESE 06:55:44 10° NNE
Cosmos 2237 Rocket 2.4 06:45:29 10° SSW 06:51:09 80° ESE 06:56:53 10° NNE
Cosmos 405 Rocket 2.8 06:48:49 10° SSW 06:52:52 70° W 06:56:54 10° N
Feng Yun 1-1 Rocket 4.5 06:47:49 10° N 06:53:35 57° WNW 06:59:11 10° SSW
Ariane Rocket 4.4 06:49:00 10° NNE 06:53:49 43° E 06:58:36 10° S
Okean-O 3.0 06:50:44 10° N 06:54:56 43° WNW 06:59:07 10° SW
CZ-4C R/B 4.4 06:48:54 10° NNW 06:55:14 36° NE 07:02:13 10° ESE
Cosmos 405 4.4 06:52:38 10° N 06:56:02 43° ENE 06:59:26 10° SSE
COSMO-SKYMED 1 2.5 06:52:21 10° S 06:56:40 74° WSW 07:01:02 10° NNW
Cosmos 1515 4.2 06:54:03 10° S 06:57:51 67° E 07:01:43 10° NNE
Cosmos 1666 3.8 06:56:39 10° NW 06:59:50 25° W 07:03:02 10° SW
Cosmos 2228 3.5 06:55:58 10° N 07:00:17 66° E 07:04:36 10° SSE
Cosmos 1743 4.4 06:59:50 10° NW 07:02:01 15° W 07:04:11 10° WSW
Meteor 1-31 Rocket 3.7 06:58:51 10° N 07:02:08 28° WNW 07:05:24 10° SW
Cosmos 2285 Rocket 4.1 06:56:37 10° SSW 07:02:58 62° WNW 07:09:23 10° NNE
Cosmos 1726 Rocket 3.6 06:59:12 10° NNW 07:03:38 67° W 07:08:03 10° S
ADEOS II 3.6 07:02:39 10° NNW 07:06:06 18° WNW 07:09:33 10° WSW
ATLAS 5 CENTAUR R/B 2.5 07:01:04 10° NW 07:07:04 73° WSW 07:13:34 10° SSE
DELTA 2 R/B (1) 3.9 07:02:05 10° WSW 07:07:33 61° S 07:13:01 10° E
BREEZE M DEB (TANK) 2.9 06:58:52 10° WNW 07:07:33 66° SW 07:10:39 10° SE
Cosmos 2333 Rocket 2.4 07:02:01 10° SW 07:07:38 59° WNW 07:13:20 10° NNE
